EW9704 Weather Reports


time (UTC)temp
F
wind
direction
speed
knots
gust
knots
rain 1hr
in
rain 24hr
in
rain mn
in
humidity
%
barometer
mb
20260505201522 83 201 4.3 13.0 0.00 0.00 0.00 67 1006.2
20260505200012 82 220 4.3 11.3 0.00 0.00 0.00 68 1006.4
20260505194520 82 228 7.0 13.0 0.00 0.00 0.00 68 1006.8
20260505193010 80 260 3.5 11.3 0.00 0.00 0.00 64 1007.1
20260505191601 80 285 1.7 12.2 0.00 0.00 0.00 62 1007.2
20260505190054 79 319 3.5 8.7 0.00 0.00 0.00 57 1007.3
20260505184549 78 281 4.3 12.2 0.00 0.00 0.00 56 1007.6
20260505183045 78 252 4.3 9.6 0.00 0.00 0.00 56 1007.5
20260505181540 78 219 6.1 12.2 0.00 0.00 0.00 56 1007.5
20260505180046 78 214 5.2 12.2 0.00 0.00 0.00 50 1007.5
20260505174538 77 277 5.2 13.0 0.00 0.00 0.00 42 1007.7
20260505173026 76 204 3.5 12.2 0.00 0.00 0.00 20 1007.8
20260505171529 75 224 3.5 8.7 0.00 0.00 0.00 13 1008.1
20260505170024 74 273 2.6 9.6 0.00 0.00 0.00 5 1008.1
20260505164517 74 279 0.9 9.6 0.00 0.00 0.00 3 1008.3
20260505163009 74 224 4.3 9.6 0.00 0.00 0.00 6 1008.2
20260505161503 74 227 5.2 12.2 0.00 0.00 0.00 1 1008.2
20260505153057 73 238 2.6 13.9 0.00 0.00 0.00 1 1008.1
20260505151550 73 275 3.5 12.2 0.00 0.00 0.00 2 1008.1
20260505124505 0 0.0 0.0 0.00 0.00 0.00 1007.2
20260505123113 0 0.0 0.0 0.00 0.00 0.00 1006.9
20260505121552 0 0.0 0.0 0.00 0.00 0.00 1006.7
20260505120049 0 0.0 0.0 0.00 0.00 0.00 1006.8
20260505114604 0 0.0 0.0 0.00 0.00 0.00 1006.6
20260505113041 0 0.0 0.0 0.00 0.00 0.00 1006.4
20260505111552 0 0.0 0.0 0.00 0.00 0.00 1006.8
20260505101518 0 0.0 0.0 0.00 0.00 0.00 1006.8
20260505100013 0 0.0 0.0 0.00 0.00 0.00 1006.7
20260505094509 0 0.0 0.0 0.00 0.00 0.00 1006.8
20260505093004 0 0.0 0.0 0.00 0.00 0.00 1006.9
20260505091600 -90 278 1.7 13.0 0.00 0.00 0.00 1 1006.9
20260505090059 70 205 2.6 10.4 0.00 0.00 0.00 1 1007.0
20260505084551 70 271 3.5 10.4 0.00 0.00 0.00 1 1007.3
20260505083059 70 210 4.3 11.3 0.00 0.00 0.00 3 1007.3
20260505081548 70 214 1.7 10.4 0.00 0.00 0.00 5 1007.6
20260505080042 70 216 3.5 8.7 0.00 0.00 0.00 3 1007.9
20260505074536 70 171 3.5 9.6 0.00 0.00 0.00 5 1008.0
20260505073031 70 288 3.5 8.7 0.00 0.00 0.00 7 1008.1
20260505071536 70 188 3.5 9.6 0.00 0.00 0.00 9 1008.3
20260505070032 70 215 3.5 12.2 0.00 0.00 0.00 11 1008.4
20260505064540 70 202 3.5 9.6 0.00 0.00 0.00 13 1008.6
20260505063023 70 214 4.3 7.8 0.00 0.00 0.00 13 1008.8
20260505061531 70 222 3.5 11.3 0.00 0.00 0.00 14 1008.9
20260505060026 70 213 6.1 10.4 0.00 0.00 0.00 15 1008.8
20260505054517 70 174 2.6 11.3 0.00 0.00 0.00 19 1008.6
20260505053016 70 222 3.5 11.3 0.00 0.00 0.00 25 1008.6
20260505051513 70 205 5.2 12.2 0.00 0.00 0.00 31 1008.6
20260505041612 72 233 3.5 12.2 0.00 0.00 0.00 50 1008.5
20260505040050 72 212 2.6 12.2 0.00 0.00 0.00 53 1008.5
20260505034547 72 254 3.5 11.3 0.00 0.00 0.00 55 1008.6
20260505033040 72 177 3.5 11.3 0.00 0.00 0.00 59 1008.5
20260505031536 73 224 3.5 8.7 0.00 0.00 0.00 60 1008.4
20260505030032 73 235 2.6 9.6 0.00 0.00 0.00 61 1008.6
20260505024539 73 180 3.5 8.7 0.00 0.00 0.00 63 1008.3
20260505023023 73 205 2.6 7.8 0.00 0.00 0.00 66 1008.4
20260505021519 74 271 1.7 8.7 0.00 0.00 0.00 67 1008.2
20260505020014 74 261 1.7 7.8 0.00 0.00 0.00 68 1007.9
20260505014510 74 210 2.6 7.8 0.00 0.00 0.00 69 1008.2
20260505013015 75 200 1.7 5.2 0.00 0.00 0.00 69 1008.2
20260505011600 76 249 2.6 7.8 0.00 0.00 0.00 69 1007.9
20260505010056 77 280 2.6 7.0 0.00 0.00 0.00 68 1008.0
20260505004551 77 224 2.6 7.8 0.00 0.00 0.00 67 1007.9
20260505003046 78 222 2.6 8.7 0.00 0.00 0.00 66 1007.8
20260505001550 79 228 2.6 7.0 0.00 0.00 0.00 65 1008.0
20260505000042 79 216 1.7 7.8 0.00 0.00 0.00 64 1008.2
20260504234533 79 214 4.3 10.4 0.00 0.00 0.00 63 1008.2
20260504233029 80 214 4.3 7.8 0.00 0.00 0.00 61 1008.3
20260504231530 81 203 1.7 15.6 0.00 0.00 0.00 62 1008.3
20260504230019 81 189 4.3 10.4 0.00 0.00 0.00 60 1008.6
20260504224517 82 231 4.3 13.0 0.00 0.00 0.00 59 1008.7
20260504223010 82 256 3.5 13.0 0.00 0.00 0.00 59 1008.8
20260504221506 82 266 4.3 12.2 0.00 0.00 0.00 60 1009.0
20260504220003 82 278 3.5 11.3 0.00 0.00 0.00 61 1008.9
20260504214556 82 226 3.5 9.6 0.00 0.00 0.00 60 1009.2
20260504213051 80 228 5.2 11.3 0.00 0.00 0.00 62 1009.5
20260504211551 81 234 4.3 7.8 0.00 0.00 0.00 61 1009.8
20260504204547 81 227 4.3 12.2 0.00 0.00 0.00 60 1010.4
20260504203037 81 233 4.3 11.3 0.00 0.00 0.00 61 1010.6